Location: Oberwangen
(47.4286°N, 8.9679°E)
Time: 15:21:34
(UTC+00:00)

Cosmos 1437 Rocket - Pass Details

Date: 20 June 2021
Orbit: 500 x 566 km, 81.2° (Epoch: 02 August)

Event Time Altitude Azimuth Distance (km) Brightness Sun altitude
Rises 23:28:34 0° 359° (N) 2,678 8.0 -19.1°
Reaches altitude 10° 23:31:02 10° 13° (NNE) 1,771 6.6 -19.1°
Maximum altitude 23:34:16 25° 69° (ENE) 1,088 4.5 -19.1°
Enters shadow 23:36:07 17° 110° (ESE) 1,342 4.6 -19.1°
